Location: Alphen aan den Rijn
(52.1277°N, 4.6689°E)
Time: 02:24:32

Envisat - Pass Details

Date: 01 March 2018
Orbit: 764 x 766 km, 98.2° (Epoch: 18 March)

Event Time Altitude Azimuth Distance (km) Brightness Sun altitude
Rises 19:57:23 0° 165° (SSE) 3,222 6.0 -15.6°
Reaches altitude 10° 19:59:41 10° 166° (SSE) 2,299 5.3 -15.9°
Maximum altitude 20:04:46 84° 256° (WSW) 778 3.0 -16.7°
Drops below altitude 10° 20:09:53 10° 344° (NNW) 2,316 5.8 -17.5°
Sets 20:12:12 0° 345° (NNW) 3,246 6.6 -17.8°
